contact:dominique.lefevre@mio.osupytheas.fr, maurice.libes@osupytheas.fr, didier.mallarino@osupytheas.fr
Project:EMSO http://www.emso-fr.org/EMSO-France
Depth: 2436.0 m
Title:EMSO Ligure Ouest : Data MII capteur CSTAR
DateTime,Latitude,Longitude,Instrument_Serial,Reference_Counts,Signal_Counts,Corrected_Signal_raw_counts,Calculated_Beam_c_inverse_meters,Internal_thermistor_counts
DateTime,Latitude,Longitude,Instrument_Serial,Reference_Counts,Signal_Counts,Corrected_Signal_raw_counts,Calculated_Beam_c_inverse_meters,Internal_thermistor_counts
2020-12-10T00:00:56,42.805,6.029,CST-1368DR,5715,7999,15061,0.145,551
2020-12-10T00:03:57,42.805,6.029,CST-1368DR,5715,7999,15061,0.145,551
2020-12-10T00:06:59,42.805,6.029,CST-1368DR,5715,7999,15061,0.145,551
2020-12-10T00:10:00,42.805,6.029,CST-1368DR,5715,7999,15061,0.145,551
2020-12-10T00:13:02,42.805,6.029,CST-1368DR,5715,7998,15059,0.145,551
2020-12-10T00:16:04,42.805,6.029,CST-1368DR,5715,7999,15061,0.145,551
2020-12-10T00:19:05,42.805,6.029,CST-1368DR,5715,7998,15058,0.146,551
2020-12-10T00:22:07,42.805,6.029,CST-1368DR,5715,7999,15061,0.145,551
2020-12-10T00:25:08,42.805,6.029,CST-1368DR,5715,7999,15060,0.145,551
2020-12-10T00:28:10,42.805,6.029,CST-1368DR,5715,7999,15061,0.145,551
2020-12-10T00:31:11,42.805,6.029,CST-1368DR,5715,7999,15060,0.145,551
2020-12-10T00:34:13,42.805,6.029,CST-1368DR,5715,7998,15058,0.146,551
2020-12-10T00:37:15,42.805,6.029,CST-1368DR,5715,7999,15061,0.145,551
2020-12-10T00:40:16,42.805,6.029,CST-1368DR,5715,7999,15060,0.145,551
2020-12-10T00:43:18,42.805,6.029,CST-1368DR,5715,7999,15061,0.145,551
2020-12-10T00:46:19,42.805,6.029,CST-1368DR,5715,7998,15059,0.145,551
2020-12-10T00:49:21,42.805,6.029,CST-1368DR,5715,7999,15060,0.145,551
2020-12-10T00:52:22,42.805,6.029,CST-1368DR,5715,7999,15060,0.145,551
2020-12-10T00:55:24,42.805,6.029,CST-1368DR,5715,7999,15061,0.145,551
2020-12-10T00:58:26,42.805,6.029,CST-1368DR,5715,7999,15060,0.145,551
2020-12-10T01:01:27,42.805,6.029,CST-1368DR,5715,7999,15061,0.145,551
2020-12-10T01:04:29,42.805,6.029,CST-1368DR,5715,7999,15060,0.145,551
2020-12-10T01:07:30,42.805,6.029,CST-1368DR,5715,7999,15060,0.145,550
2020-12-10T01:10:32,42.805,6.029,CST-1368DR,5715,7999,15060,0.145,551
2020-12-10T01:13:34,42.805,6.029,CST-1368DR,5715,7999,15060,0.145,551
2020-12-10T01:16:35,42.805,6.029,CST-1368DR,5715,7999,15060,0.145,551
2020-12-10T01:19:37,42.805,6.029,CST-1368DR,5715,7998,15058,0.146,551
2020-12-10T01:22:38,42.805,6.029,CST-1368DR,5715,7998,15058,0.146,550
2020-12-10T01:25:40,42.805,6.029,CST-1368DR,5715,7999,15060,0.145,551
2020-12-10T01:28:41,42.805,6.029,CST-1368DR,5715,7999,15060,0.145,551
2020-12-10T01:31:43,42.805,6.029,CST-1368DR,5715,7998,15059,0.145,551
2020-12-10T01:34:45,42.805,6.029,CST-1368DR,5715,7998,15059,0.145,551
2020-12-10T01:37:46,42.805,6.029,CST-1368DR,5715,7996,15055,0.146,551
2020-12-10T01:40:48,42.805,6.029,CST-1368DR,5715,7998,15059,0.145,551
2020-12-10T01:43:49,42.805,6.029,CST-1368DR,5715,7997,15057,0.146,551
2020-12-10T01:46:51,42.805,6.029,CST-1368DR,5715,7999,15060,0.145,551
2020-12-10T01:49:53,42.805,6.029,CST-1368DR,5715,7999,15060,0.145,551
2020-12-10T01:52:54,42.805,6.029,CST-1368DR,5715,7998,15059,0.145,551
2020-12-10T01:55:56,42.805,6.029,CST-1368DR,5715,7999,15060,0.145,550
2020-12-10T01:58:57,42.805,6.029,CST-1368DR,5715,7998,15058,0.146,551
2020-12-10T02:01:59,42.805,6.029,CST-1368DR,5715,7998,15059,0.145,551
2020-12-10T02:05:00,42.805,6.029,CST-1368DR,5715,7998,15058,0.146,551
2020-12-10T02:08:02,42.805,6.029,CST-1368DR,5715,7999,15060,0.145,551
2020-12-10T02:11:04,42.805,6.029,CST-1368DR,5715,7997,15056,0.146,551
2020-12-10T02:14:05,42.805,6.029,CST-1368DR,5715,7998,15059,0.145,551
2020-12-10T02:17:07,42.805,6.029,CST-1368DR,5715,7998,15058,0.146,551
2020-12-10T02:20:08,42.805,6.029,CST-1368DR,5715,7999,15060,0.145,551
2020-12-10T02:23:10,42.805,6.029,CST-1368DR,5715,7998,15059,0.145,551
2020-12-10T02:26:12,42.805,6.029,CST-1368DR,5715,7999,15060,0.145,551
2020-12-10T02:29:13,42.805,6.029,CST-1368DR,5715,7998,15059,0.145,551
2020-12-10T02:32:15,42.805,6.029,CST-1368DR,5715,7998,15059,0.145,551
2020-12-10T02:35:16,42.805,6.029,CST-1368DR,5715,7997,15057,0.146,551
2020-12-10T02:38:18,42.805,6.029,CST-1368DR,5715,7997,15057,0.146,551
2020-12-10T02:41:19,42.805,6.029,CST-1368DR,5715,7998,15058,0.146,551
2020-12-10T02:44:21,42.805,6.029,CST-1368DR,5715,7997,15057,0.146,551
2020-12-10T02:47:23,42.805,6.029,CST-1368DR,5715,7998,15058,0.146,551
2020-12-10T02:50:24,42.805,6.029,CST-1368DR,5715,7998,15058,0.146,551
2020-12-10T02:53:26,42.805,6.029,CST-1368DR,5715,7998,15058,0.146,551
2020-12-10T02:56:27,42.805,6.029,CST-1368DR,5715,7998,15058,0.146,551
2020-12-10T02:59:29,42.805,6.029,CST-1368DR,5715,7998,15059,0.145,551
2020-12-10T03:02:30,42.805,6.029,CST-1368DR,5715,7998,15058,0.146,551
2020-12-10T03:05:32,42.805,6.029,CST-1368DR,5715,7999,15060,0.145,550
2020-12-10T03:08:34,42.805,6.029,CST-1368DR,5715,7998,15059,0.145,551
2020-12-10T03:11:35,42.805,6.029,CST-1368DR,5715,7998,15059,0.145,551
2020-12-10T03:14:37,42.805,6.029,CST-1368DR,5715,7998,15058,0.146,551
2020-12-10T03:17:38,42.805,6.029,CST-1368DR,5715,7998,15059,0.145,551
2020-12-10T03:20:40,42.805,6.029,CST-1368DR,5715,7998,15059,0.145,551
2020-12-10T03:23:42,42.805,6.029,CST-1368DR,5715,7998,15058,0.146,551
2020-12-10T03:26:43,42.805,6.029,CST-1368DR,5715,7997,15057,0.146,551
2020-12-10T03:29:45,42.805,6.029,CST-1368DR,5715,7998,15059,0.145,551
2020-12-10T03:32:46,42.805,6.029,CST-1368DR,5715,7998,15059,0.145,551
2020-12-10T03:35:48,42.805,6.029,CST-1368DR,5715,7998,15058,0.146,551
2020-12-10T03:38:49,42.805,6.029,CST-1368DR,5715,7998,15058,0.146,551
2020-12-10T03:41:51,42.805,6.029,CST-1368DR,5715,7998,15058,0.146,551
2020-12-10T03:44:53,42.805,6.029,CST-1368DR,5715,7998,15058,0.146,551
2020-12-10T03:47:54,42.805,6.029,CST-1368DR,5715,7998,15058,0.146,551
2020-12-10T03:50:56,42.805,6.029,CST-1368DR,5715,7999,15060,0.145,551
2020-12-10T03:53:57,42.805,6.029,CST-1368DR,5715,7997,15057,0.146,551
2020-12-10T03:56:59,42.805,6.029,CST-1368DR,5715,7998,15058,0.146,551
2020-12-10T04:00:01,42.805,6.029,CST-1368DR,5715,7998,15059,0.145,551
2020-12-10T04:03:02,42.805,6.029,CST-1368DR,5715,7998,15058,0.146,551
2020-12-10T04:06:04,42.805,6.029,CST-1368DR,5715,7998,15058,0.146,551
2020-12-10T04:09:05,42.805,6.029,CST-1368DR,5715,7998,15058,0.146,551
2020-12-10T04:12:07,42.805,6.029,CST-1368DR,5715,7998,15059,0.145,551
2020-12-10T04:15:08,42.805,6.029,CST-1368DR,5715,7999,15060,0.145,551
2020-12-10T04:18:10,42.805,6.029,CST-1368DR,5715,7998,15058,0.146,551
2020-12-10T04:21:12,42.805,6.029,CST-1368DR,5715,7997,15057,0.146,551
2020-12-10T04:24:13,42.805,6.029,CST-1368DR,5715,7999,15060,0.145,551
2020-12-10T04:27:15,42.805,6.029,CST-1368DR,5715,7998,15058,0.146,551
2020-12-10T04:30:16,42.805,6.029,CST-1368DR,5715,7998,15059,0.145,551
2020-12-10T04:33:18,42.805,6.029,CST-1368DR,5715,7998,15058,0.146,551
2020-12-10T04:36:19,42.805,6.029,CST-1368DR,5715,7998,15058,0.146,551
2020-12-10T04:39:21,42.805,6.029,CST-1368DR,5715,7998,15058,0.146,551
2020-12-10T04:42:23,42.805,6.029,CST-1368DR,5715,7998,15059,0.145,551
2020-12-10T04:45:24,42.805,6.029,CST-1368DR,5715,7998,15058,0.146,551
2020-12-10T04:48:26,42.805,6.029,CST-1368DR,5715,7998,15058,0.146,551
2020-12-10T04:51:27,42.805,6.029,CST-1368DR,5715,7998,15058,0.146,551
2020-12-10T04:54:29,42.805,6.029,CST-1368DR,5715,7998,15059,0.145,551
2020-12-10T04:57:31,42.805,6.029,CST-1368DR,5715,7997,15057,0.146,550
2020-12-10T05:00:32,42.805,6.029,CST-1368DR,5715,7998,15058,0.146,551
2020-12-10T05:03:34,42.805,6.029,CST-1368DR,5715,7998,15058,0.146,551
2020-12-10T05:06:35,42.805,6.029,CST-1368DR,5715,7998,15058,0.146,551
2020-12-10T05:09:37,42.805,6.029,CST-1368DR,5715,7998,15059,0.145,551
2020-12-10T05:12:38,42.805,6.029,CST-1368DR,5715,7997,15057,0.146,550
2020-12-10T05:15:40,42.805,6.029,CST-1368DR,5715,7998,15058,0.146,551
2020-12-10T05:18:42,42.805,6.029,CST-1368DR,5715,7998,15058,0.146,551
2020-12-10T05:21:43,42.805,6.029,CST-1368DR,5715,7998,15059,0.145,551
2020-12-10T05:24:45,42.805,6.029,CST-1368DR,5715,7997,15057,0.146,551
2020-12-10T05:27:46,42.805,6.029,CST-1368DR,5714,7997,15059,0.145,550
2020-12-10T05:30:48,42.805,6.029,CST-1368DR,5714,7998,15061,0.145,551
2020-12-10T05:33:49,42.805,6.029,CST-1368DR,5715,7997,15057,0.146,551
2020-12-10T05:36:51,42.805,6.029,CST-1368DR,5715,7998,15058,0.146,551
2020-12-10T05:39:53,42.805,6.029,CST-1368DR,5715,7997,15057,0.146,551
2020-12-10T05:42:54,42.805,6.029,CST-1368DR,5715,7998,15058,0.146,551
2020-12-10T05:45:56,42.805,6.029,CST-1368DR,5714,7997,15060,0.145,551
2020-12-10T05:48:57,42.805,6.029,CST-1368DR,5715,7998,15058,0.146,551
2020-12-10T05:51:59,42.805,6.029,CST-1368DR,5714,7997,15059,0.145,551
2020-12-10T05:55:01,42.805,6.029,CST-1368DR,5714,7998,15061,0.145,551
2020-12-10T05:58:02,42.805,6.029,CST-1368DR,5714,7997,15060,0.145,551
2020-12-10T06:01:04,42.805,6.029,CST-1368DR,5714,7997,15059,0.145,551
2020-12-10T06:04:05,42.805,6.029,CST-1368DR,5714,7997,15058,0.146,551
2020-12-10T06:07:07,42.805,6.029,CST-1368DR,5714,7997,15060,0.145,551
2020-12-10T06:10:08,42.805,6.029,CST-1368DR,5714,7997,15059,0.145,551
2020-12-10T06:13:10,42.805,6.029,CST-1368DR,5714,7997,15060,0.145,551
2020-12-10T06:16:12,42.805,6.029,CST-1368DR,5714,7997,15059,0.145,551
2020-12-10T06:19:13,42.805,6.029,CST-1368DR,5714,7997,15059,0.145,551
2020-12-10T06:22:15,42.805,6.029,CST-1368DR,5714,7997,15059,0.145,551
2020-12-10T06:25:16,42.805,6.029,CST-1368DR,5714,7998,15060,0.145,551
2020-12-10T06:28:18,42.805,6.029,CST-1368DR,5714,7997,15059,0.145,551
2020-12-10T06:31:19,42.805,6.029,CST-1368DR,5714,7997,15060,0.145,551
2020-12-10T06:34:21,42.805,6.029,CST-1368DR,5714,7998,15061,0.145,551
2020-12-10T06:37:23,42.805,6.029,CST-1368DR,5714,7997,15059,0.145,551
2020-12-10T06:40:24,42.805,6.029,CST-1368DR,5714,7997,15060,0.145,551
2020-12-10T06:43:26,42.805,6.029,CST-1368DR,5714,7998,15060,0.145,551
2020-12-10T06:46:27,42.805,6.029,CST-1368DR,5714,7997,15060,0.145,551
2020-12-10T06:49:29,42.805,6.029,CST-1368DR,5714,7994,15054,0.147,551
2020-12-10T06:52:31,42.805,6.029,CST-1368DR,5714,7998,15061,0.145,551
2020-12-10T06:55:32,42.805,6.029,CST-1368DR,5714,7997,15060,0.145,551
2020-12-10T06:58:34,42.805,6.029,CST-1368DR,5714,7998,15060,0.145,551
2020-12-10T07:01:35,42.805,6.029,CST-1368DR,5714,7997,15058,0.146,551
2020-12-10T07:04:37,42.805,6.029,CST-1368DR,5714,7996,15058,0.146,551
2020-12-10T07:07:38,42.805,6.029,CST-1368DR,5714,7997,15059,0.145,551
2020-12-10T07:10:40,42.805,6.029,CST-1368DR,5714,7998,15060,0.145,550
2020-12-10T07:13:42,42.805,6.029,CST-1368DR,5714,7997,15060,0.145,551
2020-12-10T07:16:43,42.805,6.029,CST-1368DR,5714,7997,15059,0.145,551
2020-12-10T07:19:45,42.805,6.029,CST-1368DR,5714,7997,15060,0.145,551
2020-12-10T07:22:46,42.805,6.029,CST-1368DR,5714,7997,15060,0.145,551
2020-12-10T07:25:48,42.805,6.029,CST-1368DR,5714,7997,15059,0.145,551
2020-12-10T07:28:50,42.805,6.029,CST-1368DR,5714,7997,15059,0.145,551
2020-12-10T07:31:51,42.805,6.029,CST-1368DR,5714,7996,15058,0.146,551
2020-12-10T07:34:53,42.805,6.029,CST-1368DR,5714,7997,15058,0.146,551
2020-12-10T07:37:54,42.805,6.029,CST-1368DR,5714,7997,15058,0.146,550
2020-12-10T07:40:56,42.805,6.029,CST-1368DR,5714,7997,15059,0.145,551
2020-12-10T07:43:57,42.805,6.029,CST-1368DR,5714,7997,15059,0.145,551
2020-12-10T07:46:59,42.805,6.029,CST-1368DR,5714,7996,15057,0.146,551
2020-12-10T07:50:01,42.805,6.029,CST-1368DR,5714,7997,15059,0.145,551
2020-12-10T07:53:02,42.805,6.029,CST-1368DR,5714,7997,15059,0.145,551
2020-12-10T07:56:04,42.805,6.029,CST-1368DR,5714,7997,15060,0.145,551
2020-12-10T07:59:05,42.805,6.029,CST-1368DR,5714,7997,15059,0.145,551
2020-12-10T08:02:07,42.805,6.029,CST-1368DR,5714,7997,15059,0.145,551
2020-12-10T08:05:09,42.805,6.029,CST-1368DR,5714,7997,15060,0.145,551
2020-12-10T08:08:10,42.805,6.029,CST-1368DR,5714,7997,15060,0.145,551
2020-12-10T08:11:12,42.805,6.029,CST-1368DR,5714,7997,15059,0.145,551
2020-12-10T08:14:13,42.805,6.029,CST-1368DR,5714,7997,15059,0.145,551
2020-12-10T08:17:15,42.805,6.029,CST-1368DR,5714,7997,15059,0.145,551
2020-12-10T08:20:16,42.805,6.029,CST-1368DR,5714,7996,15058,0.146,551
2020-12-10T08:23:18,42.805,6.029,CST-1368DR,5714,7996,15057,0.146,551
2020-12-10T08:26:20,42.805,6.029,CST-1368DR,5714,7996,15058,0.146,551
2020-12-10T08:29:21,42.805,6.029,CST-1368DR,5714,7997,15058,0.146,551
2020-12-10T08:32:23,42.805,6.029,CST-1368DR,5714,7997,15059,0.145,551
2020-12-10T08:35:24,42.805,6.029,CST-1368DR,5714,7997,15058,0.146,551
2020-12-10T08:38:26,42.805,6.029,CST-1368DR,5714,7997,15059,0.145,551
2020-12-10T08:41:27,42.805,6.029,CST-1368DR,5714,7997,15059,0.145,551
2020-12-10T08:44:29,42.805,6.029,CST-1368DR,5714,7997,15059,0.145,551
2020-12-10T08:47:31,42.805,6.029,CST-1368DR,5714,7996,15058,0.146,551
2020-12-10T08:50:32,42.805,6.029,CST-1368DR,5714,7997,15058,0.146,551
2020-12-10T08:53:34,42.805,6.029,CST-1368DR,5714,7996,15058,0.146,551
2020-12-10T08:56:35,42.805,6.029,CST-1368DR,5714,7997,15059,0.145,551
2020-12-10T08:59:37,42.805,6.029,CST-1368DR,5714,7997,15059,0.145,551
2020-12-10T09:02:39,42.805,6.029,CST-1368DR,5714,7997,15058,0.146,551
2020-12-10T09:05:40,42.805,6.029,CST-1368DR,5714,7996,15058,0.146,551
2020-12-10T09:08:42,42.805,6.029,CST-1368DR,5714,7995,15056,0.146,551
2020-12-10T09:11:43,42.805,6.029,CST-1368DR,5714,7997,15059,0.145,551
2020-12-10T09:14:45,42.805,6.029,CST-1368DR,5714,7996,15058,0.146,551
2020-12-10T09:17:46,42.805,6.029,CST-1368DR,5714,7997,15059,0.145,551
2020-12-10T09:20:48,42.805,6.029,CST-1368DR,5714,7996,15058,0.146,551
2020-12-10T09:23:50,42.805,6.029,CST-1368DR,5714,7996,15057,0.146,551
2020-12-10T09:26:51,42.805,6.029,CST-1368DR,5714,7997,15058,0.146,551
2020-12-10T09:29:53,42.805,6.029,CST-1368DR,5714,7997,15058,0.146,551
2020-12-10T09:32:54,42.805,6.029,CST-1368DR,5714,7997,15059,0.145,551
2020-12-10T09:35:56,42.805,6.029,CST-1368DR,5714,7997,15059,0.145,551
2020-12-10T09:38:57,42.805,6.029,CST-1368DR,5714,7996,15057,0.146,551
2020-12-10T09:41:59,42.805,6.029,CST-1368DR,5714,7997,15058,0.146,551
2020-12-10T09:45:01,42.805,6.029,CST-1368DR,5714,7997,15058,0.146,551
2020-12-10T09:48:02,42.805,6.029,CST-1368DR,5714,7997,15059,0.145,551
2020-12-10T09:51:04,42.805,6.029,CST-1368DR,5714,7997,15058,0.146,551
2020-12-10T09:54:05,42.805,6.029,CST-1368DR,5714,7996,15057,0.146,551
2020-12-10T09:57:07,42.805,6.029,CST-1368DR,5714,7996,15058,0.146,551
2020-12-10T10:00:09,42.805,6.029,CST-1368DR,5714,7996,15058,0.146,551
2020-12-10T10:03:10,42.805,6.029,CST-1368DR,5714,7997,15058,0.146,551
2020-12-10T10:06:12,42.805,6.029,CST-1368DR,5714,7996,15058,0.146,551
2020-12-10T10:09:13,42.805,6.029,CST-1368DR,5714,7996,15058,0.146,551
2020-12-10T10:12:15,42.805,6.029,CST-1368DR,5714,7996,15057,0.146,551
2020-12-10T10:15:16,42.805,6.029,CST-1368DR,5714,7996,15057,0.146,551
2020-12-10T10:18:18,42.805,6.029,CST-1368DR,5714,7996,15058,0.146,551
2020-12-10T10:21:20,42.805,6.029,CST-1368DR,5714,7996,15058,0.146,551
2020-12-10T10:24:21,42.805,6.029,CST-1368DR,5714,7996,15058,0.146,551
2020-12-10T10:27:23,42.805,6.029,CST-1368DR,5714,7996,15057,0.146,551
2020-12-10T10:30:24,42.805,6.029,CST-1368DR,5714,7996,15058,0.146,551
2020-12-10T10:33:26,42.805,6.029,CST-1368DR,5714,7997,15058,0.146,551
2020-12-10T10:36:28,42.805,6.029,CST-1368DR,5714,7996,15057,0.146,551
2020-12-10T10:39:29,42.805,6.029,CST-1368DR,5714,7996,15057,0.146,551
2020-12-10T10:42:31,42.805,6.029,CST-1368DR,5714,7997,15059,0.145,551
2020-12-10T10:45:32,42.805,6.029,CST-1368DR,5714,7996,15058,0.146,551
2020-12-10T10:48:34,42.805,6.029,CST-1368DR,5714,7996,15058,0.146,551
2020-12-10T10:51:35,42.805,6.029,CST-1368DR,5714,7996,15058,0.146,551
2020-12-10T10:54:37,42.805,6.029,CST-1368DR,5714,7996,15057,0.146,551
2020-12-10T10:57:39,42.805,6.029,CST-1368DR,5714,7996,15057,0.146,551
2020-12-10T11:00:40,42.805,6.029,CST-1368DR,5714,7996,15058,0.146,551
2020-12-10T11:03:42,42.805,6.029,CST-1368DR,5714,7995,15055,0.146,551
2020-12-10T11:06:43,42.805,6.029,CST-1368DR,5714,7995,15056,0.146,551
2020-12-10T11:09:45,42.805,6.029,CST-1368DR,5714,7995,15055,0.146,551
2020-12-10T11:12:46,42.805,6.029,CST-1368DR,5714,7995,15056,0.146,551
2020-12-10T11:15:48,42.805,6.029,CST-1368DR,5714,7996,15057,0.146,551
2020-12-10T11:18:50,42.805,6.029,CST-1368DR,5714,7995,15056,0.146,551
2020-12-10T11:21:51,42.805,6.029,CST-1368DR,5714,7996,15058,0.146,551
2020-12-10T11:24:53,42.805,6.029,CST-1368DR,5714,7995,15056,0.146,551
2020-12-10T11:27:54,42.805,6.029,CST-1368DR,5714,7996,15057,0.146,551
2020-12-10T11:30:56,42.805,6.029,CST-1368DR,5714,7996,15057,0.146,551
2020-12-10T11:33:58,42.805,6.029,CST-1368DR,5714,7994,15054,0.147,551
2020-12-10T11:36:59,42.805,6.029,CST-1368DR,5714,7994,15053,0.147,551
2020-12-10T11:40:01,42.805,6.029,CST-1368DR,5714,7995,15056,0.146,551
2020-12-10T11:43:02,42.805,6.029,CST-1368DR,5714,7995,15056,0.146,551
2020-12-10T11:46:04,42.805,6.029,CST-1368DR,5714,7995,15055,0.146,551
2020-12-10T11:49:05,42.805,6.029,CST-1368DR,5714,7993,15052,0.147,551
2020-12-10T11:52:07,42.805,6.029,CST-1368DR,5714,7995,15056,0.146,551
2020-12-10T11:55:09,42.805,6.029,CST-1368DR,5714,7994,15054,0.147,551
2020-12-10T11:58:10,42.805,6.029,CST-1368DR,5713,7995,15058,0.146,551
2020-12-10T12:01:12,42.805,6.029,CST-1368DR,5714,7994,15054,0.147,551
2020-12-10T12:04:13,42.805,6.029,CST-1368DR,5714,7995,15055,0.146,551
2020-12-10T12:07:15,42.805,6.029,CST-1368DR,5714,7995,15056,0.146,551
2020-12-10T12:10:17,42.805,6.029,CST-1368DR,5714,7995,15056,0.146,551
2020-12-10T12:13:18,42.805,6.029,CST-1368DR,5714,7996,15057,0.146,551
2020-12-10T12:16:20,42.805,6.029,CST-1368DR,5714,7995,15056,0.146,551
2020-12-10T12:19:21,42.805,6.029,CST-1368DR,5714,7995,15056,0.146,551
2020-12-10T12:22:23,42.805,6.029,CST-1368DR,5714,7996,15057,0.146,551
2020-12-10T12:25:24,42.805,6.029,CST-1368DR,5713,7994,15057,0.146,551
2020-12-10T12:28:26,42.805,6.029,CST-1368DR,5714,7994,15053,0.147,551
2020-12-10T12:31:28,42.805,6.029,CST-1368DR,5714,7995,15056,0.146,551
2020-12-10T12:34:29,42.805,6.029,CST-1368DR,5714,7995,15056,0.146,551
2020-12-10T12:37:31,42.805,6.029,CST-1368DR,5714,7995,15056,0.146,551
2020-12-10T12:40:32,42.805,6.029,CST-1368DR,5713,7995,15058,0.146,551
2020-12-10T12:43:34,42.805,6.029,CST-1368DR,5714,7995,15055,0.146,551
2020-12-10T12:46:35,42.805,6.029,CST-1368DR,5713,7994,15057,0.146,551
2020-12-10T12:49:37,42.805,6.029,CST-1368DR,5713,7994,15056,0.146,551
2020-12-10T12:52:39,42.805,6.029,CST-1368DR,5713,7994,15057,0.146,551
2020-12-10T12:55:40,42.805,6.029,CST-1368DR,5713,7995,15057,0.146,551
2020-12-10T12:58:42,42.805,6.029,CST-1368DR,5713,7994,15057,0.146,551
2020-12-10T13:01:43,42.805,6.029,CST-1368DR,5713,7994,15056,0.146,551
2020-12-10T13:04:45,42.805,6.029,CST-1368DR,5713,7994,15056,0.146,551
2020-12-10T13:07:47,42.805,6.029,CST-1368DR,5713,7994,15055,0.146,551
2020-12-10T13:10:48,42.805,6.029,CST-1368DR,5713,7995,15059,0.145,551
2020-12-10T13:13:50,42.805,6.029,CST-1368DR,5713,7994,15056,0.146,551
2020-12-10T13:16:51,42.805,6.029,CST-1368DR,5713,7995,15057,0.146,551
2020-12-10T13:19:53,42.805,6.029,CST-1368DR,5713,7994,15056,0.146,551
2020-12-10T13:22:54,42.805,6.029,CST-1368DR,5714,7995,15056,0.146,551
2020-12-10T13:25:56,42.805,6.029,CST-1368DR,5714,7995,15056,0.146,551
2020-12-10T13:28:58,42.805,6.029,CST-1368DR,5713,7995,15058,0.146,551
2020-12-10T13:31:59,42.805,6.029,CST-1368DR,5713,7995,15059,0.145,551
2020-12-10T13:35:01,42.805,6.029,CST-1368DR,5713,7995,15058,0.146,551
2020-12-10T13:38:02,42.805,6.029,CST-1368DR,5713,7995,15058,0.146,551
2020-12-10T13:41:04,42.805,6.029,CST-1368DR,5713,7995,15058,0.146,551
2020-12-10T13:44:05,42.805,6.029,CST-1368DR,5713,7995,15058,0.146,551
2020-12-10T13:47:07,42.805,6.029,CST-1368DR,5713,7995,15057,0.146,551
2020-12-10T13:50:09,42.805,6.029,CST-1368DR,5713,7994,15056,0.146,551
2020-12-10T13:53:10,42.805,6.029,CST-1368DR,5713,7994,15057,0.146,551
2020-12-10T13:56:12,42.805,6.029,CST-1368DR,5713,7994,15056,0.146,551
2020-12-10T13:59:13,42.805,6.029,CST-1368DR,5713,7994,15056,0.146,551
2020-12-10T14:02:15,42.805,6.029,CST-1368DR,5713,7994,15057,0.146,551
2020-12-10T14:05:17,42.805,6.029,CST-1368DR,5713,7995,15057,0.146,551
2020-12-10T14:08:18,42.805,6.029,CST-1368DR,5713,7994,15056,0.146,551
2020-12-10T14:11:20,42.805,6.029,CST-1368DR,5713,7994,15056,0.146,550
2020-12-10T14:14:21,42.805,6.029,CST-1368DR,5713,7994,15056,0.146,551
2020-12-10T14:17:23,42.805,6.029,CST-1368DR,5713,7995,15057,0.146,551
2020-12-10T14:20:24,42.805,6.029,CST-1368DR,5713,7994,15057,0.146,551
2020-12-10T14:23:26,42.805,6.029,CST-1368DR,5713,7993,15055,0.146,551
2020-12-10T14:26:28,42.805,6.029,CST-1368DR,5713,7994,15057,0.146,551
2020-12-10T14:29:29,42.805,6.029,CST-1368DR,5713,7994,15057,0.146,551
2020-12-10T14:32:31,42.805,6.029,CST-1368DR,5713,7993,15054,0.147,551
2020-12-10T14:35:32,42.805,6.029,CST-1368DR,5713,7993,15054,0.147,551
2020-12-10T14:38:34,42.805,6.029,CST-1368DR,5713,7994,15056,0.146,551
2020-12-10T14:41:36,42.805,6.029,CST-1368DR,5713,7994,15056,0.146,551
2020-12-10T14:44:37,42.805,6.029,CST-1368DR,5713,7994,15056,0.146,551
2020-12-10T14:47:39,42.805,6.029,CST-1368DR,5713,7994,15056,0.146,551
2020-12-10T14:50:40,42.805,6.029,CST-1368DR,5713,7994,15057,0.146,551
2020-12-10T14:53:42,42.805,6.029,CST-1368DR,5713,7994,15057,0.146,550
2020-12-10T14:56:43,42.805,6.029,CST-1368DR,5713,7994,15055,0.146,551
2020-12-10T14:59:45,42.805,6.029,CST-1368DR,5713,7994,15055,0.146,551
2020-12-10T15:02:47,42.805,6.029,CST-1368DR,5713,7993,15053,0.147,551
2020-12-10T15:05:48,42.805,6.029,CST-1368DR,5713,7994,15056,0.146,551
2020-12-10T15:08:50,42.805,6.029,CST-1368DR,5713,7994,15056,0.146,551
2020-12-10T15:11:51,42.805,6.029,CST-1368DR,5713,7993,15055,0.146,551
2020-12-10T15:14:53,42.805,6.029,CST-1368DR,5713,7994,15055,0.146,551
2020-12-10T15:17:54,42.805,6.029,CST-1368DR,5713,7994,15056,0.146,551
2020-12-10T15:20:56,42.805,6.029,CST-1368DR,5713,7994,15056,0.146,551
2020-12-10T15:23:58,42.805,6.029,CST-1368DR,5713,7994,15056,0.146,551
2020-12-10T15:26:59,42.805,6.029,CST-1368DR,5713,7994,15056,0.146,551
2020-12-10T15:30:01,42.805,6.029,CST-1368DR,5713,7994,15056,0.146,551
2020-12-10T15:33:02,42.805,6.029,CST-1368DR,5713,7994,15056,0.146,551
2020-12-10T15:36:04,42.805,6.029,CST-1368DR,5713,7994,15056,0.146,551
2020-12-10T15:39:06,42.805,6.029,CST-1368DR,5713,7993,15055,0.146,551
2020-12-10T15:42:07,42.805,6.029,CST-1368DR,5713,7994,15057,0.146,551
2020-12-10T15:45:09,42.805,6.029,CST-1368DR,5713,7994,15056,0.146,551
2020-12-10T15:48:10,42.805,6.029,CST-1368DR,5713,7994,15055,0.146,551
2020-12-10T15:51:12,42.805,6.029,CST-1368DR,5713,7994,15056,0.146,551
2020-12-10T15:54:13,42.805,6.029,CST-1368DR,5713,7994,15056,0.146,551
2020-12-10T15:57:15,42.805,6.029,CST-1368DR,5713,7993,15054,0.147,551
2020-12-10T16:00:17,42.805,6.029,CST-1368DR,5713,7994,15056,0.146,551
2020-12-10T16:03:18,42.805,6.029,CST-1368DR,5713,7992,15052,0.147,551
2020-12-10T16:06:20,42.805,6.029,CST-1368DR,5713,7994,15057,0.146,551
2020-12-10T16:09:21,42.805,6.029,CST-1368DR,5713,7994,15055,0.146,551
2020-12-10T16:12:23,42.805,6.029,CST-1368DR,5713,7994,15057,0.146,551
2020-12-10T16:15:25,42.805,6.029,CST-1368DR,5713,7994,15057,0.146,551
2020-12-10T16:18:26,42.805,6.029,CST-1368DR,5713,7994,15057,0.146,551
2020-12-10T16:21:28,42.805,6.029,CST-1368DR,5713,7994,15057,0.146,551
2020-12-10T16:24:29,42.805,6.029,CST-1368DR,5713,7994,15057,0.146,551
2020-12-10T16:27:31,42.805,6.029,CST-1368DR,5713,7995,15057,0.146,551
2020-12-10T16:30:32,42.805,6.029,CST-1368DR,5713,7995,15057,0.146,551
2020-12-10T16:33:34,42.805,6.029,CST-1368DR,5713,7994,15056,0.146,551
2020-12-10T16:36:36,42.805,6.029,CST-1368DR,5713,7994,15056,0.146,551
2020-12-10T16:39:37,42.805,6.029,CST-1368DR,5713,7994,15055,0.146,551
2020-12-10T16:42:39,42.805,6.029,CST-1368DR,5713,7994,15056,0.146,551
2020-12-10T16:45:40,42.805,6.029,CST-1368DR,5713,7994,15056,0.146,551
2020-12-10T16:48:42,42.805,6.029,CST-1368DR,5713,7994,15057,0.146,551
2020-12-10T16:51:43,42.805,6.029,CST-1368DR,5713,7995,15057,0.146,551